sat.trackr.live / text

‹ back to catalog

TIANQIN 1 (CAS-6)

NORAD 44879 · 2019-093A

PAYLOAD ACTIVE UNKNOWN

§ Identity

Operator
Country
PRC
Launch date
2019-12-20
Launch site
TAISC
Launch vehicle
Mass (kg)
RCS (m²)

External: N2YO · Heavens-Above · Gunter

§ Orbital elements

Epoch: 2026-05-25T04:54:33.643584Z

Period
96.30 min
Inclination
97.7804°
Eccentricity
0.0012448
Mean motion
14.95305221 rev/d
Perigee alt
572.8 km
Apogee alt
590.1 km
Semi-major
6,959.6 km
B*
1.7604e-4
RAAN
229.2140°
Arg perigee
125.5856°
Mean anomaly
234.6526°
Rev number
34,861

§ Raw data

TIANQIN 1 (CAS-6)1 44879U 19093A   26145.20455606  .00001884  00000+0  17604-3 0  99912 44879  97.7804 229.2140 0012448 125.5856 234.6526 14.95305221348612

JSON: /api/v1/satellites/44879 · /tle

For live sub-satellite position, see the globe view (requires WebGL).

§ Visibility from observer

Set your observer location to see the next 7 days of passes ≥ 10°. The values pass through the URL so the page stays shareable.

No JS? Fill the form by hand. The geolocation button needs JavaScript.

§ Radio — SatNOGS DB

ModeDescriptionDownlinkUplink
QPSK S-band telemetry 2.259 GHz

1 transmitter · refreshed weekly from db.satnogs.org